Date String (YYYY-MM-DD hh:mm:ss) UTC,Instrument flags,Ambient pressure (hPa),Sample flow (lpm),Bypass flow (lpm),Sample temperature (°C),Ambient temperature (°C),ASC tube jacket temperature (°C),LED temperature (°C),Box temperature (°C),Sample RH (%),Span deviation,Mass concentration (μg/m³),Mass concentration (μg/m³),Mass concentration (μg/m³)
DateTimeUTC,F1_M11,P_M11,Q1_M11,Q2_M11,T1_M11,T2_M11,T3_M11,T4_M11,T5_M11,U1_M11,ZSPAN_M11,X0_M11,X2_M11,X1_M11
2023-01-05 05:00:00,,0826.2,5.00,0.00,22.4,20.9,00.0,31.2,24.1,08.5,0003.4,0012.90,0007.48,0006.97
2023-01-05 05:01:00,,0826.4,5.00,0.00,22.3,20.9,00.0,31.2,24.0,08.5,0004.5,0013.24,0007.56,0007.05
2023-01-05 05:02:00,,0826.5,5.00,0.00,22.3,20.9,00.0,31.2,24.0,08.5,0005.3,0014.91,0007.67,0007.13
2023-01-05 05:03:00,,0826.4,5.00,0.00,22.3,20.8,00.0,31.2,24.0,08.5,0005.2,0015.01,0007.76,0007.19
2023-01-05 05:04:00,,0826.5,5.00,0.00,22.3,20.8,00.0,31.2,24.0,08.5,0004.6,0015.10,0007.83,0007.23
2023-01-05 05:05:00,,0826.5,5.00,0.00,22.3,21.6,00.0,31.1,24.2,08.6,0004.7,0015.72,0007.94,0007.28
2023-01-05 05:06:00,,0826.5,5.00,0.00,22.5,22.6,00.0,31.1,24.4,08.5,0004.7,0016.12,0007.99,0007.31
2023-01-05 05:07:00,,0826.5,5.00,0.00,22.6,23.1,00.0,31.2,24.6,08.5,0004.4,0016.01,0008.03,0007.34
2023-01-05 05:08:00,,0826.5,4.99,0.00,22.6,22.7,00.0,31.2,24.6,08.4,0004.6,0016.16,0008.05,0007.37
2023-01-05 05:09:00,,0826.5,4.99,0.00,22.6,22.3,00.0,31.3,24.5,08.4,0004.3,0016.24,0008.14,0007.47
2023-01-05 05:10:00,,0826.5,5.00,0.00,22.6,22.0,00.0,31.3,24.4,08.4,0004.9,0016.41,0008.26,0007.57
2023-01-05 05:11:00,,0826.5,5.00,0.00,22.6,21.7,00.0,31.3,24.4,08.4,0004.2,0016.53,0008.35,0007.66
2023-01-05 05:12:00,,0826.4,5.00,0.00,22.6,21.6,00.0,31.3,24.3,08.4,0004.4,0016.49,0008.44,0007.73
2023-01-05 05:13:00,,0826.5,5.00,0.00,22.6,21.5,00.0,31.3,24.3,08.4,0004.2,0015.40,0008.55,0007.82
2023-01-05 05:14:00,,0826.5,5.00,0.00,22.6,21.4,00.0,31.3,24.3,08.4,0004.3,0015.87,0008.63,0007.89
2023-01-05 05:15:00,,0826.5,5.00,0.00,22.5,21.3,00.0,31.3,24.2,08.4,0005.1,0015.89,0008.69,0007.97
2023-01-05 05:16:00,,0826.5,5.00,0.00,22.5,21.2,00.0,31.3,24.2,08.5,0004.6,0015.39,0008.69,0008.03
2023-01-05 05:17:00,,0826.5,4.99,0.00,22.5,21.1,00.0,31.3,24.1,08.5,0002.9,0015.43,0008.74,0008.10
2023-01-05 05:18:00,,0826.5,4.99,0.00,22.4,20.9,00.0,31.3,24.1,08.5,0002.0,0015.27,0008.82,0008.17
2023-01-05 05:19:00,,0826.5,5.00,0.00,22.4,20.7,00.0,31.3,24.0,08.5,0001.1,0015.27,0008.92,0008.24
2023-01-05 05:20:00,,0826.6,5.01,0.00,22.3,20.7,00.0,31.3,23.9,08.5,0001.1,0015.00,0008.95,0008.25
2023-01-05 05:21:00,,0826.6,5.01,0.00,22.3,20.7,00.0,31.3,23.9,08.5,0001.2,0014.98,0008.98,0008.27
2023-01-05 05:22:00,,0826.5,4.99,0.00,22.3,20.7,00.0,31.2,23.9,08.6,0001.3,0014.82,0008.98,0008.30
2023-01-05 05:23:00,,0826.5,5.00,0.00,22.3,20.9,00.0,31.2,24.0,08.6,0000.8,0015.22,0009.08,0008.35
2023-01-05 05:24:00,,0826.5,5.00,0.00,22.4,21.8,00.0,31.2,24.2,08.6,0000.0,0015.23,0009.13,0008.39
2023-01-05 05:25:00,,0826.6,5.00,0.00,22.5,22.7,00.0,31.2,24.5,08.6,0000.1,0015.19,0009.19,0008.44
2023-01-05 05:26:00,,0826.6,5.00,0.00,22.6,22.8,00.0,31.2,24.6,08.6,-000.1,0015.44,0009.32,0008.54
2023-01-05 05:27:00,,0826.7,4.99,0.00,22.6,22.3,00.0,31.3,24.5,08.5,0000.2,0016.02,0009.43,0008.56
2023-01-05 05:28:00,,0826.7,5.00,0.00,22.6,21.9,00.0,31.3,24.4,08.5,0000.7,0016.01,0009.49,0008.56
2023-01-05 05:29:00,,0826.6,5.00,0.00,22.5,21.5,00.0,31.3,24.3,08.4,0001.0,0015.78,0009.54,0008.62
2023-01-05 05:30:00,,0826.7,5.00,0.00,22.5,21.1,00.0,31.3,24.1,08.3,0001.2,0015.72,0009.53,0008.66
2023-01-05 05:31:00,,0826.6,5.00,0.00,22.4,20.8,00.0,31.3,24.0,08.3,0001.4,0015.75,0009.59,0008.73
2023-01-05 05:32:00,,0826.5,4.99,0.00,22.3,20.3,00.0,31.3,23.8,08.3,0001.5,0015.78,0009.64,0008.81
2023-01-05 05:33:00,,0826.5,4.99,0.00,22.2,19.9,00.0,31.3,23.6,08.4,0001.5,0015.57,0009.74,0008.90
2023-01-05 05:34:00,,0826.5,5.01,0.00,22.1,19.8,00.0,31.2,23.6,08.5,0000.9,0015.37,0009.74,0008.96
2023-01-05 05:35:00,,0826.5,5.01,0.00,22.1,20.0,00.0,31.2,23.6,08.6,0000.8,0014.93,0009.67,0008.93
2023-01-05 05:36:00,,0826.5,5.00,0.00,22.1,20.1,00.0,31.1,23.7,08.6,0000.8,0014.55,0009.65,0008.93
2023-01-05 05:37:00,,0826.5,5.00,0.00,22.1,20.2,00.0,31.1,23.7,08.7,0000.6,0014.57,0009.63,0008.90
2023-01-05 05:38:00,,0826.5,5.00,0.00,22.1,20.3,00.0,31.1,23.7,08.7,0000.0,0014.08,0009.55,0008.89
2023-01-05 05:39:00,,0826.5,4.99,0.00,22.1,21.1,00.0,31.0,23.9,08.7,-000.0,0013.54,0009.52,0008.95
2023-01-05 05:40:00,,0826.5,4.99,0.00,22.2,22.1,00.0,31.0,24.1,08.7,-000.1,0013.52,0009.53,0008.95
2023-01-05 05:41:00,,0826.6,4.99,0.00,22.3,22.7,00.0,31.0,24.3,08.7,-000.6,0013.60,0009.64,0009.04
2023-01-05 05:42:00,,0826.6,4.98,0.00,22.4,22.2,00.0,31.1,24.2,08.7,-001.2,0013.69,0009.76,0009.16
2023-01-05 05:43:00,,0826.6,5.01,0.00,22.3,21.6,00.0,31.1,24.1,08.8,-001.3,0013.93,0009.92,0009.31
2023-01-05 05:44:00,,0826.5,5.01,0.00,22.3,21.2,00.0,31.1,24.0,08.8,-001.2,0014.98,0010.04,0009.42
2023-01-05 05:45:00,,0826.6,4.99,0.00,22.3,20.9,00.0,31.1,23.9,08.8,-000.9,0015.26,0010.09,0009.45
2023-01-05 05:46:00,,0826.6,4.99,0.00,22.2,20.7,00.0,31.1,23.8,08.8,-000.6,0015.43,0010.14,0009.50
2023-01-05 05:47:00,,0826.5,5.02,0.00,22.2,20.4,00.0,31.1,23.7,08.8,-000.7,0015.78,0010.18,0009.55
2023-01-05 05:48:00,,0826.5,5.00,0.00,22.1,20.1,00.0,31.1,23.5,08.9,-000.2,0016.07,0010.27,0009.69
2023-01-05 05:49:00,,0826.5,4.99,0.00,22.0,20.0,00.0,31.1,23.5,08.9,0000.4,0017.09,0010.37,0009.83
2023-01-05 05:50:00,,0826.5,5.00,0.00,22.0,20.1,00.0,31.0,23.5,08.9,0000.6,0017.69,0010.45,0009.90
2023-01-05 05:51:00,,0826.5,5.00,0.00,22.0,20.2,00.0,31.0,23.6,08.9,0000.9,0017.73,0010.47,0009.92
2023-01-05 05:52:00,,0826.5,5.00,0.00,22.0,20.3,00.0,31.0,23.6,08.9,0001.4,0017.87,0010.44,0009.88
2023-01-05 05:53:00,,0826.5,5.01,0.00,22.0,20.4,00.0,31.0,23.6,08.9,0002.1,0018.07,0010.34,0009.78
2023-01-05 05:54:00,,0826.6,5.02,0.00,22.0,21.2,00.0,30.9,23.8,08.9,0001.7,0018.64,0010.24,0009.68
2023-01-05 05:55:00,,0826.5,5.00,0.00,22.1,22.2,00.0,30.9,24.1,08.8,0002.0,0018.09,0010.15,0009.61
2023-01-05 05:56:00,,0826.5,4.99,0.00,22.3,22.8,00.0,30.9,24.3,08.7,0001.9,0017.79,0010.11,0009.58
2023-01-05 05:57:00,,0826.5,4.97,0.00,22.3,22.5,00.0,31.0,24.3,08.6,0002.0,0017.57,0010.10,0009.54
2023-01-05 05:58:00,,0826.4,5.01,0.00,22.3,22.1,00.0,31.0,24.2,08.6,0002.3,0017.34,0010.08,0009.51
2023-01-05 05:59:00,,0826.5,4.99,0.00,22.3,21.7,00.0,31.0,24.1,08.6,0002.4,0016.94,0009.96,0009.38
